This is the latest recevied weather packets stored in our database for station/object KI5PFS. If no packets are shown the sender has not sent any weather packets the latest 10 day(s).
| Time | Temp. | Humidity | Pressure | Rain* | Wind** | Luminosity | Snow |
|---|---|---|---|---|---|---|---|
| 1777156204 | 28.89° C | 61% | 1001.4 hPa | 0 mm | - | - | - |
| 1777155605 | 28.89° C | 60% | 1001.5 hPa | 0 mm | - | - | - |
| 1777155003 | 28.89° C | 61% | 1001.6 hPa | 0 mm | - | - | - |
| 1777154403 | 30° C | 58% | 1001.6 hPa | 0 mm | - | - | - |
| 1777153804 | 28.89° C | 60% | 1001.7 hPa | 0 mm | - | - | - |
| 1777153203 | 28.89° C | 62% | 1001.7 hPa | 0 mm | - | - | - |
| 1777152604 | 28.89° C | 62% | 1001.7 hPa | 0 mm | - | - | - |
| 1777152003 | 28.89° C | 61% | 1001.7 hPa | 0 mm | - | - | - |
| 1777151403 | 28.89° C | 61% | 1001.9 hPa | 0 mm | - | - | - |
| 1777150803 | 30° C | 60% | 1001.9 hPa | 0 mm | - | - | - |
| 1777150203 | 28.89° C | 62% | 1002.2 hPa | 0 mm | - | - | - |
| 1777149603 | 30° C | 62% | 1002.1 hPa | 0 mm | - | - | - |
| 1777149004 | 28.89° C | 64% | 1002.2 hPa | 0 mm | - | - | - |
| 1777148403 | 28.89° C | 64% | 1002.3 hPa | 0 mm | - | - | - |
| 1777147804 | 28.89° C | 64% | 1002.5 hPa | 0 mm | - | - | - |
| 1777147204 | 28.89° C | 63% | 1002.5 hPa | 0 mm | - | - | - |
| 1777146603 | 28.89° C | 64% | 1002.6 hPa | 0 mm | - | - | - |
| 1777146002 | 28.89° C | 64% | 1002.6 hPa | 0 mm | - | - | - |
| 1777145404 | 28.89° C | 62% | 1002.8 hPa | 0 mm | - | - | - |
| 1777144803 | 28.89° C | 63% | 1002.9 hPa | 0 mm | - | - | - |
| 1777144204 | 28.89° C | 65% | 1003 hPa | 0 mm | - | - | - |
| 1777143603 | 28.89° C | 65% | 1003.1 hPa | 0 mm | - | - | - |
| 1777143003 | 30° C | 63% | 1003.2 hPa | 0 mm | - | - | - |
| 1777142403 | 28.89° C | 66% | 1003.3 hPa | 0 mm | - | - | - |
| 1777141803 | 27.78° C | 67% | 1003.4 hPa | 0 mm | - | - | - |
* Rain latest hour (hover to see other rain measurements)
** Current wind speed in m/s (hover to see current wind gust speed)